Change the Weather History Date:

Wednesday, October 30, 2013

  Actual Average Record
Temperature  
Mean Temperature 50 °F -  
Max Temperature 57 °F 55 °F 87 °F (1950)
Min Temperature 42 °F 32 °F 16 °F (1988)
Degree Days  
Heating Degree Days 16    
Moisture  
Dew Point 49 °F    
Average Humidity 94    
Maximum Humidity 96    
Minimum Humidity 90    
Precipitation  
Precipitation 0.04 in - - ()
Sea Level Pressure  
Sea Level Pressure 29.86 in    
Wind  
Wind Speed 4 mph (NW)    
Max Wind Speed 10 mph    
Max Gust Speed 16 mph    
Visibility 3 miles    
Events Fog , Rain , Thunderstorm    
Averages and records for this station are not official NWS values.
T = Trace of Precipitation, MM = Missing Value Source: NWS Daily Summary

Daily Weather History Graph

Daily Weather History Graph

Search for Another Location

Airport or City:

Trip Planner

Search our weather history database for the weather conditions in past years. The results will help you decide how hot, cold, wet, or windy it might be!

Date:

Astronomy

Oct. 30, 2013 Rise Set
Actual Time 7:54 AM CDT 6:17 PM CDT
Civil Twilight 7:24 AM CDT 6:46 PM CDT
Nautical Twilight 6:51 AM CDT 7:19 PM CDT
Astronomical Twilight 6:18 AM CDT 7:52 PM CDT
Moon 3:38 AM CDT 4:07 PM CDT
Length of Visible Light 11h 21m
Length of Day
10h 23m
Waning Crescent, 17% of the Moon is Illuminated
Oct 30
Waning Crescent
Nov 3
New
Nov 9
First Quarter
Nov 17
Full
Nov 25
Last Quarter

Hourly Weather History & Observations

Time (CDT) Temp. Windchill Dew Point Humidity Pressure Visibility Wind Dir Wind Speed Gust Speed Precip Events Conditions
12:15 AM 50.9 °F - 48.2 °F 90% 29.99 in 7.0 mi Calm Calm - N/A   Overcast
12:35 AM 50.7 °F - 48.0 °F 90% 29.99 in 5.0 mi Calm Calm - N/A   Overcast
12:55 AM 50.5 °F - 48.2 °F 92% 29.99 in 4.0 mi NNE 3.5 mph - N/A   Overcast
1:15 AM 50.4 °F - 48.2 °F 92% 29.99 in 3.0 mi North 3.5 mph - N/A Rain Light Rain
1:35 AM 50.2 °F - 48.2 °F 93% 29.99 in 1.8 mi Calm Calm - N/A   Overcast
1:55 AM 50.0 °F - 48.2 °F 94% 29.98 in 1.0 mi Calm Calm - N/A Rain Light Rain
2:15 AM 50.0 °F - 48.4 °F 94% 29.97 in 1.5 mi NE 3.5 mph - N/A   Overcast
2:35 AM 50.0 °F - 48.4 °F 94% 29.97 in 1.5 mi NNE 3.5 mph - N/A   Overcast
2:55 AM 50.0 °F - 48.6 °F 95% 29.96 in 1.5 mi Calm Calm - N/A   Overcast
3:15 AM 50.0 °F - 48.6 °F 95% 29.96 in 1.5 mi Calm Calm - N/A   Overcast
3:35 AM 50.0 °F - 48.6 °F 95% 29.95 in 1.2 mi NNE 3.5 mph - N/A   Overcast
3:55 AM 50.2 °F - 48.7 °F 95% 29.95 in 1.0 mi NNE 3.5 mph - N/A   Overcast
4:15 AM 50.4 °F - 49.1 °F 95% 29.95 in 1.0 mi NNE 3.5 mph - N/A   Overcast
4:35 AM 50.4 °F - 49.1 °F 95% 29.94 in 0.8 mi NE 3.5 mph - N/A   Overcast
4:55 AM 50.4 °F - 49.1 °F 95% 29.94 in 0.8 mi Calm Calm - N/A   Overcast
5:15 AM 50.9 °F - 49.6 °F 95% 29.93 in 1.0 mi East 3.5 mph - N/A   Overcast
5:35 AM 51.1 °F - 49.8 °F 95% 29.92 in 1.2 mi Calm Calm - 0.01 in   Overcast
5:55 AM 51.1 °F - 50.0 °F 96% 29.91 in 1.5 mi ENE 3.5 mph - 0.01 in   Overcast
6:15 AM 51.6 °F - 50.2 °F 95% 29.91 in 3.0 mi ESE 3.5 mph - N/A   Overcast
6:35 AM 51.6 °F - 50.2 °F 95% 29.89 in 3.0 mi East 5.8 mph - N/A   Overcast
6:55 AM 51.4 °F - 50.2 °F 95% 29.90 in 2.5 mi East 3.5 mph - N/A   Overcast
7:15 AM 51.4 °F - 50.2 °F 95% 29.91 in 1.2 mi Calm Calm - N/A   Overcast
7:35 AM 51.4 °F - 50.0 °F 95% 29.92 in 0.5 mi Calm Calm - N/A Fog Fog
7:55 AM 51.4 °F - 50.0 °F 95% 29.94 in 0.2 mi Calm Calm - N/A Fog Fog
8:15 AM 51.6 °F - 50.2 °F 95% 29.95 in 0.2 mi Calm Calm - N/A Fog Fog
8:35 AM 51.4 °F - 50.2 °F 95% 29.99 in 0.5 mi SSW 5.8 mph - N/A Rain , Thunderstorm Light Thunderstorms and Rain
8:55 AM 51.8 °F - 50.7 °F 96% 29.92 in 0.5 mi ESE 3.5 mph - 0.01 in Rain Rain
9:15 AM 52.2 °F - 50.9 °F 95% 29.89 in 1.5 mi NNE 4.6 mph - N/A Rain Light Rain
9:35 AM 52.9 °F - 51.8 °F 96% 29.86 in 1.5 mi NE 4.6 mph - N/A Rain Light Rain
9:55 AM 52.9 °F - 51.6 °F 95% 29.83 in 1.0 mi East 4.6 mph - N/A   Overcast
10:15 AM 53.8 °F - 52.5 °F 95% 29.84 in 2.5 mi ESE 6.9 mph - N/A   Overcast
10:35 AM 54.5 °F - 53.2 °F 96% 29.83 in 3.0 mi SE 8.1 mph - N/A   Overcast
10:55 AM 55.2 °F - 54.0 °F 96% 29.82 in 1.2 mi SE 8.1 mph - N/A   Overcast
11:15 AM 55.8 °F - 54.5 °F 96% 29.85 in 2.5 mi South 10.4 mph - N/A   Overcast
11:35 AM 56.8 °F - 55.6 °F 96% 29.87 in 5.0 mi SSW 10.4 mph - N/A   Overcast
11:55 AM 57.2 °F - 55.8 °F 95% 29.87 in 7.0 mi SW 5.8 mph - N/A   Overcast
12:15 PM 57.2 °F - 55.8 °F 95% 29.86 in 7.0 mi WSW 5.8 mph - N/A   Overcast
12:35 PM 56.8 °F - 55.4 °F 95% 29.84 in 5.0 mi WSW 6.9 mph - N/A   Overcast
12:55 PM 55.4 °F - 53.2 °F 92% 29.84 in 3.0 mi WNW 8.1 mph - N/A   Overcast
1:15 PM 54.5 °F - 52.7 °F 94% 29.82 in 4.0 mi NW 8.1 mph - N/A   Overcast
1:35 PM 52.0 °F - 50.0 °F 93% 29.82 in 2.0 mi NW 8.1 mph - N/A   Overcast
1:55 PM 50.9 °F - 49.1 °F 94% 29.81 in 2.0 mi NW 8.1 mph - N/A   Overcast
2:15 PM 50.4 °F - 48.6 °F 94% 29.82 in 1.2 mi WNW 10.4 mph - N/A   Overcast
2:35 PM 49.8 °F - 48.2 °F 94% 29.79 in 1.0 mi NW 6.9 mph - N/A   Overcast
2:55 PM 50.0 °F - 48.2 °F 94% 29.79 in 1.2 mi WNW 6.9 mph - N/A   Overcast
3:15 PM 50.0 °F - 48.6 °F 95% 29.78 in 2.5 mi NW 4.6 mph - N/A   Overcast
3:35 PM 50.2 °F - 48.6 °F 94% 29.79 in 3.0 mi NW 5.8 mph - N/A   Overcast
3:55 PM 50.0 °F - 48.4 °F 94% 29.80 in 3.0 mi WNW 5.8 mph - N/A   Overcast
4:15 PM 50.2 °F - 48.6 °F 94% 29.78 in 3.0 mi Calm Calm - N/A Rain Light Rain
4:35 PM 50.2 °F - 48.4 °F 94% 29.79 in 2.5 mi Calm Calm - N/A   Drizzle
4:55 PM 49.8 °F - 48.0 °F 94% 29.79 in 1.5 mi West 5.8 mph - 0.01 in   Heavy Drizzle
5:15 PM 49.3 °F - 47.5 °F 94% 29.78 in 1.8 mi West 3.5 mph - N/A   Drizzle
5:35 PM 49.3 °F - 47.7 °F 94% 29.78 in 1.2 mi Calm Calm - N/A   Heavy Drizzle
5:55 PM 49.1 °F - 47.5 °F 94% 29.77 in 1.5 mi Calm Calm - 0.01 in   Drizzle
6:15 PM 49.1 °F - 47.3 °F 93% 29.76 in 2.5 mi West 3.5 mph - N/A   Light Drizzle
7:55 PM 46.6 °F - 44.8 °F 93% 29.78 in 7.0 mi WNW 10.4 mph - N/A   Overcast
8:15 PM 46.0 °F 43.9 °F 44.2 °F 93% 29.77 in 7.0 mi NW 4.6 mph - N/A   Overcast
8:35 PM 45.9 °F 41.7 °F 43.9 °F 93% 29.77 in 7.0 mi NW 8.1 mph - N/A   Overcast
8:55 PM 45.5 °F 41.8 °F 43.7 °F 93% 29.77 in 5.0 mi WNW 6.9 mph - N/A   Overcast
9:15 PM 45.0 °F 40.1 °F 43.0 °F 93% 29.76 in 7.0 mi WNW 9.2 mph - N/A   Overcast
9:35 PM 44.6 °F 39.7 °F 42.3 °F 91% 29.76 in 7.0 mi NW 9.2 mph - N/A   Overcast
9:55 PM 44.2 °F 39.7 °F 42.1 °F 92% 29.75 in 7.0 mi WNW 8.1 mph - N/A   Overcast
10:15 PM 43.9 °F 39.3 °F 41.9 °F 93% 29.76 in 5.0 mi WNW 8.1 mph - N/A   Overcast
10:35 PM 43.2 °F 38.4 °F 41.2 °F 93% 29.76 in 3.0 mi WNW 8.1 mph 16.1 mph N/A   Overcast
10:55 PM 43.0 °F 37.7 °F 41.0 °F 93% 29.76 in 4.0 mi WNW 9.2 mph - N/A   Overcast
11:15 PM 42.8 °F 38.0 °F 41.0 °F 93% 29.76 in 3.0 mi WNW 8.1 mph - N/A   Overcast
11:35 PM 42.8 °F 37.0 °F 41.0 °F 93% 29.77 in 3.0 mi West 10.4 mph - N/A   Overcast
11:55 PM 42.6 °F 37.8 °F 40.8 °F 93% 29.76 in 3.0 mi WNW 8.1 mph - N/A   Overcast